DW5923 Weather Reports


time (UTC)temp
C
wind
direction
speed
KPH
gust
KPH
rain 1hr
cm
rain 24hr
cm
rain mn
cm
humidity
%
barometer
mb
20260503071507 16 292 11.3 20.9 0.00 0.00 0.00 62 1018.3
20260503054622 15 316 4.8 14.5 0.00 0.00 0.00 67 1018.3
20260503053059 14 331 1.6 16.1 0.00 0.00 0.00 69 1018.2
20260503051559 13 282 8.0 14.5 0.00 0.00 0.00 69 1018.2
20260503050058 13 264 6.4 11.3 0.00 0.00 0.00 71 1018.2
20260503044558 13 295 1.6 11.3 0.00 0.00 0.00 70 1018.2
20260503043057 13 283 8.0 17.7 0.00 0.00 0.00 70 1018.1
20260503041552 13 292 8.0 17.7 0.00 0.00 0.00 69 1018.1
20260503040050 13 336 6.4 12.9 0.00 0.00 0.00 66 1018.1
20260503034549 13 268 6.4 14.5 0.00 0.00 0.00 68 1018.1
20260503033051 13 286 4.8 14.5 0.00 0.00 0.00 68 1018.1
20260503031547 13 282 6.4 14.5 0.00 0.00 0.00 67 1018.1
20260503030047 13 276 4.8 16.1 0.00 0.00 0.00 66 1018.2
20260503024541 14 263 9.7 14.5 0.00 0.00 0.00 64 1018.3
20260503023039 14 295 9.7 14.5 0.00 0.00 0.00 64 1018.3
20260503021537 14 293 6.4 14.5 0.00 0.00 0.00 63 1018.4
20260503020036 14 281 6.4 12.9 0.00 0.00 0.00 63 1018.4
20260503014532 14 300 6.4 14.5 0.00 0.00 0.00 64 1018.6
20260503013031 14 273 8.0 12.9 0.00 0.00 0.00 62 1018.7
20260503011530 15 285 6.4 14.5 0.00 0.00 0.00 60 1018.7
20260503010034 15 284 6.4 12.9 0.00 0.00 0.00 61 1018.8
20260503004528 15 270 6.4 11.3 0.00 0.00 0.00 60 1018.9
20260503003026 15 268 4.8 12.9 0.00 0.00 0.00 59 1019.1
20260503001522 14 292 4.8 9.7 0.00 0.00 0.00 59 1019.2
20260503000020 15 302 3.2 11.3 0.00 0.00 0.00 58 1019.4
20260502234524 15 277 4.8 8.0 0.00 0.00 0.00 57 1019.6
20260502233017 15 297 4.8 9.7 0.00 0.00 0.00 57 1019.7
20260502231522 15 285 4.8 9.7 0.00 0.00 0.00 56 1019.7
20260502230016 15 315 1.6 6.4 0.00 0.00 0.00 56 1019.7
20260502224515 15 315 1.6 6.4 0.00 0.00 0.00 55 1019.7
20260502223015 15 262 4.8 9.7 0.00 0.00 0.00 53 1019.8
20260502221512 15 284 4.8 9.7 0.00 0.00 0.00 53 1019.8
20260502220012 14 270 1.6 6.4 0.00 0.00 0.00 58 1019.9
20260502214521 14 238 0.0 3.2 0.00 0.00 0.00 58 1019.9
20260502213008 14 236 0.0 1.6 0.00 0.00 0.00 57 1019.9
20260502211516 15 236 0.0 0.0 0.00 0.00 0.00 55 1019.8
20260502210021 15 236 0.0 4.8 0.00 0.00 0.00 53 1019.8
20260502204510 15 236 0.0 4.8 0.00 0.00 0.00 54 1019.8
20260502203010 15 236 0.0 3.2 0.00 0.00 0.00 54 1019.8
20260502201508 15 236 0.0 4.8 0.00 0.00 0.00 52 1019.8
20260502200004 16 241 0.0 4.8 0.00 0.00 0.00 52 1019.7
20260502194503 16 242 3.2 4.8 0.00 0.00 0.00 51 1019.8
20260502193003 16 247 3.2 6.4 0.00 0.00 0.00 51 1019.7
20260502191506 16 249 3.2 6.4 0.00 0.00 0.00 51 1019.6
20260502190003 16 230 3.2 4.8 0.00 0.00 0.00 52 1019.5
20260502184505 17 249 1.6 4.8 0.00 0.00 0.00 51 1019.4
20260502183001 17 269 0.0 8.0 0.00 0.00 0.00 47 1019.3
20260502181500 17 250 3.2 6.4 0.00 0.00 0.00 48 1019.2
20260502180116 18 256 3.2 4.8 0.00 0.00 0.00 46 1019.1
20260502170108 20 236 3.2 6.4 0.00 0.00 0.00 45 1019.0
20260502163054 20 233 4.8 8.0 0.00 0.00 0.00 44 1019.2
20260502161553 22 229 1.6 6.4 0.00 0.00 0.00 42 1019.3
20260502151551 22 69 1.6 9.7 0.00 0.00 0.00 34 1019.7
20260502123021 21 308 4.8 19.3 0.00 0.00 0.00 39 1022.0
20260502121535 21 80 3.2 11.3 0.00 0.00 0.00 40 1022.1
20260502114514 21 130 3.2 11.3 0.00 0.00 0.00 41 1022.6
20260502113012 20 59 3.2 11.3 0.00 0.00 0.00 41 1022.8
20260502111511 20 111 3.2 11.3 0.00 0.00 0.00 41 1023.2
20260502110109 20 117 0.0 8.0 0.00 0.00 0.00 43 1023.4
20260502104504 20 54 3.2 8.0 0.00 0.00 0.00 42 1023.6
20260502103002 20 50 3.2 11.3 0.00 0.00 0.00 44 1023.8
20260502101612 20 67 3.2 9.7 0.00 0.00 0.00 46 1024.0